Regional Weather Roundup
Issued by NWS

Home | Current Version | Previous Version | Graphics & Text | Print | Product List | Glossary Off
Versions: 1 2 3 4 5 6 7 8 9 10 11 12 13 14 15 16 17 18 19 20 21 22 23 24 25 26 27 28 29 30 31 32 33 34 35 36 37 38 39 40 41 42 43 44 45 46 47 48 49 50

000
ASUS43 KMKX 160821
RWRWI

WISCONSIN REGIONAL WEATHER ROUNDUP
NATIONAL WEATHER SERVICE MILWAUKEE/SULLIVAN WI
300 AM CDT WED APR 16 2014

NOTE: "FAIR" INDICATES FEW OR NO CLOUDS BELOW 12,000 FEET WITH NO
SIGNIFICANT WEATHER AND/OR OBSTRUCTIONS TO VISIBILITY.

WIZ001-002-006>008-014>016-023>028-160900-
NORTHWEST WISCONSIN

CITY           SKY/WX    TMP DP  RH WIND       PRES   REMARKS
SUPERIOR ARPT  CLOUDY    24  12  62 NE3       30.13S
ASHLAND        MOCLDY    22   7  52 S3        30.15S
HAYWARD        CLOUDY    25  10  53 E5        30.11S WCI  19
SIREN          CLOUDY    29  10  45 E3        30.09S
RICE LAKE      NOT AVBL
LADYSMITH      CLOUDY    28  16  62 E6        30.13S WCI  21
EAU CLAIRE     CLOUDY    32  13  45 SE10      30.11S WCI  24
MENOMONIE      LGT SNOW  32  19  59 SE5       30.11S WCI  27
NEW RICHMOND   LGT SNOW  29  25  88 E10       30.08F WCI  19
OSCEOLA        LGT SNOW  28  28  97 E9        30.10F VSB 3/4 WCI  20
$$

WIZ003>005-009-010-017-018-160900-
NORTH CENTRAL WISCONSIN

CITY           SKY/WX    TMP DP  RH WIND       PRES   REMARKS
WOODRUFF       PTCLDY    17   4  57 CALM      30.13R
RHINELANDER    PTCLDY    11   5  77 CALM      30.13S
EAGLE RIVER    CLEAR      8   4  82 CALM      30.13S
LAND O LAKES   CLEAR      1  -3  85 CALM      30.14R
PHILLIPS       CLOUDY    20  10  65 CALM      30.11S
TOMAHAWK       CLOUDY    15  12  88 CALM      30.13R
MEDFORD        CLOUDY    25  17  72 SE6       30.11S WCI  18
MERRILL        CLOUDY    17  14  88 CALM      30.14S
$$

WIZ029-030-035-036-043>047-160900-
CENTRAL WISCONSIN

CITY           SKY/WX    TMP DP  RH WIND       PRES   REMARKS
WAUSAU         CLOUDY    22  16  78 SE5       30.14S WCI  16
MOSINEE        PTCLDY    23  18  80 SE5       30.16S WCI  17
MARSHFIELD     CLOUDY    27  17  66 SE6       30.13S WCI  20
STEVENS POINT  CLOUDY    19  15  87 CALM      30.17S
WAUPACA        MOCLDY    25  21  86 CALM      30.20S
WAUTOMA        CLOUDY    23  21  92 CALM      30.20R
WISC RAPIDS    CLOUDY    25  17  72 SE8       30.17S WCI  16
CAMP DOUGLAS   CLOUDY    28  20  71 SE8       30.14F WCI  20
$$

WIZ011>013-019>022-031-037>040-048>050-160900-
NORTHEAST WISCONSIN

CITY           SKY/WX    TMP DP  RH WIND       PRES   REMARKS
ANTIGO         CLEAR     18  12  77 CALM      30.15R
STURGEON BAY   CLEAR     23  14  68 S5        30.22R WCI  17
GREEN BAY      CLEAR     25  21  85 S5        30.22R WCI  19
MANITOWOC      CLEAR     22  17  81 CALM      30.24R
APPLETON       CLEAR     27  19  74 S5        30.21R WCI  21
CLINTONVILLE   CLEAR     23  19  86 CALM      30.19S
OSHKOSH        MOCLDY    26  19  74 S6        30.21R WCI  19
$$

WIZ032>034-041-042-053>061-160900-
SOUTHWEST WISCONSIN

CITY           SKY/WX    TMP DP  RH WIND       PRES   REMARKS
LA CROSSE      CLOUDY    32  20  61 SE7       30.12R WCI  26
SPARTA         MOCLDY    30  19  63 SE6       30.14S WCI  24
VIROQUA        PTSUNNY   28  19  69 E8        30.10S WCI  20
BOSCOBEL       PTCLDY    31  21  66 CALM      30.15S
PRAIRIE DU CHI MOCLDY    32  19  59 E8        30.12S WCI  25
PLATTEVILLE    FAIR      30  20  67 E9        30.13F WCI  21
$$

WIZ056-057-062-063-064-067-068-160900-
SOUTH CENTRAL WISCONSIN

CITY           SKY/WX    TMP DP  RH WIND       PRES   REMARKS
BARABOO/DELLS  CLOUDY    28  19  68 E7        30.16R WCI  21
LONE ROCK      CLOUDY    30  24  78 E7        30.16S WCI  23
WATERTOWN      MOCLDY    25  22  86 E5        30.19S WCI  20
MADISON        CLOUDY    29  20  69 SE7       30.18S WCI  22
MIDDLETON      PTSUNNY   31  21  66 SE5       30.17S WCI  26
MONROE         PTCLDY    28  18  65 SE6       30.15S WCI  22
JANESVILLE     PTCLDY    28  23  80 SE6       30.18S WCI  22
$$

WIZ051-052-058>065-066-070>072-160900-
SOUTHEAST WISCONSIN

CITY           SKY/WX    TMP DP  RH WIND       PRES   REMARKS
MILWAUKEE      PTCLDY    26  21  81 S3        30.23S
WAUKESHA       CLEAR     23  21  93 CALM      30.21S
MILWAUKEE/TIMM CLEAR     25  19  80 CALM      30.23S
RACINE         CLEAR     26  23  88 S3        30.24S
BURLINGTON     MOCLDY    20  20  98 CALM      30.21S
KENOSHA        CLEAR     25  19  78 S5        30.22S WCI  19
FOND DU LAC    MOCLDY    27  20  75 S7        30.21R WCI  19
SHEBOYGAN      CLEAR     25  22  88 CALM      30.23R
WEST BEND      CLEAR     23  19  86 CALM      30.22R
JUNEAU         PTCLDY    26  20  80 E7        30.21S WCI  18
$$

LSZ147-162-160900-
LAKE SUPERIOR

STATION/POSITION TIME  TEMP    WIND        PRES    WAVE
                       AIR SEA DIR/SP/G            HT/PER
                 (UTC) (F)     (DEG/KT/KT) (MB)    (FT/S)
DEVILS ISLAND    0800   28        CALM     1022.2S
PORT WING        0700   24     140/  2/  5 1020.7
SAXON HARBOR     0700          190/  3/  5 1021.0
$$

LMZ867-665-643>646-160900-
LAKE MICHIGAN

STATION/POSITION TIME  TEMP    WIND        PRES    WAVE
                       AIR SEA DIR/SP/G            HT/PER
                 (UTC) (F)     (DEG/KT/KT) (MB)    (FT/S)
NORTHPORT PIER   0700   28     130/  7/  8 1023.4R
SISTER BAY       0709   24     110/  6/  8   N/A
KEWAUNEE LAKESHO 0800   25     220/  5/  6 1024.2R
SHEBOYGAN LAKESH 0800   32     210/  7/  8 1024.9R
PORT WASHINGTON  0700   28     250/  3/  4 1024.4R
MILWAUKEE LAKESH 0800   33     150/  5/  9   N/A
KENOSHA   LAKESH 0800   33     170/  5/  7   N/A
$$

TC  - TEMPERATURE IN CELSIUS
VSB - VISIBILITY IN STATUTE MILES
WCI - WIND CHILL INDEX
HX  - HEAT INDEX




USA.gov is the U.S. government's official web portal to all federal, state and local government web resources and services.